Lapse_Rate
6.6 6.3 7.0 8.3 7.3 7.4 7.1 7.0 7.5 6.7 4.5 4.1 3.1 3.8 4.0 2.5 4.0 3.8 5.4 6.3 5.4 5.2 6.0 7.0 7.4 7.7 7.7 7.4 7.4 7.3 7.4 7.7 7.8 7.3 7.2 7.0 6.8 7.0
7.2 7.2 7.4 8.0 7.9 6.7 6.6 7.1 8.6 8.0 6.6 5.3 3.3 3.2 3.5 2.8 2.3 2.7 3.1 3.7 4.0 4.0 4.9 5.8 6.3 6.5 6.8 6.9 6.9 7.0 6.9 7.1 7.3 7.4 7.3 7.2 7.0 6.7
7.1 6.8 7.2 7.7 6.8 6.0 5.9 6.7 8.4 8.5 7.9 6.7 4.2 1.9 3.0 3.8 3.0 2.8 2.6 2.3 3.6 3.4 3.1 4.4 5.4 5.6 5.9 6.3 6.4 6.5 6.5 6.4 6.6 7.0 7.2 7.2 7.3 7.3
7.2 6.7 7.0 7.0 6.8 5.6 5.3 5.0 6.7 7.3 7.7 5.9 3.3 2.4 2.5 3.3 4.2 3.3 2.8 3.5 4.5 4.7 3.7 3.8 4.4 4.8 5.0 5.4 5.7 5.7 5.9 6.0 5.9 6.2 6.8 7.0 7.2 7.0
8.2 7.6 6.6 6.8 6.5 6.5 4.9 4.6 6.5 6.1 6.3 6.0 3.3 2.0 0.9 0.6 2.5 3.1 3.5 3.7 3.8 3.9 3.3 3.0 3.0 3.2 3.5 3.7 4.0 4.4 4.6 4.8 4.7 5.1 5.7 6.1 6.7 6.9
8.4 7.7 6.9 6.5 6.7 6.4 6.4 5.2 5.3 5.9 5.9 5.9 5.3 2.3 2.9 0.2 1.4 2.3 1.9 2.9 4.2 3.4 2.6 2.9 3.0 2.6 2.5 2.7 3.0 3.3 3.2 3.4 3.7 4.0 4.5 4.9 5.3 5.9
8.2 8.0 8.3 6.4 5.4 6.0 7.1 5.9 5.9 5.8 5.3 5.6 4.4 2.9 1.8 1.0 2.1 1.8 3.1 3.8 4.6 4.7 4.0 4.3 3.5 4.1 3.6 2.5 2.9 2.8 2.6 2.8 3.0 3.4 3.9 4.2 4.3 4.7
7.7 7.7 7.5 3.9 4.2 4.0 3.9 4.2 5.2 5.6 5.2 4.9 4.7 4.4 4.3 4.9 3.8 3.9 3.8 5.6 5.4 3.4 3.8 4.8 3.8 3.9 4.2 4.0 4.4 3.4 3.4 2.7 2.8 2.9 3.0 3.3 3.9 4.1
6.8 8.0 6.3 6.1 5.2 5.8 3.7 3.0 3.4 3.3 4.4 4.7 4.7 5.5 5.9 6.0 5.2 6.2 6.0 5.9 6.7 3.7 4.4 5.1 3.5 4.1 4.5 4.1 3.7 3.4 3.2 2.9 2.8 2.8 2.8 3.1 3.3 4.1
8.0 7.9 7.4 5.9 5.7 5.5 4.8 4.8 5.0 4.5 4.5 5.2 5.6 6.2 5.7 5.7 7.1 6.9 6.5 6.2 5.5 3.8 4.0 4.3 5.3 3.7 5.1 4.9 3.9 2.5 2.1 2.1 2.2 2.6 2.9 3.1 3.3 3.4
6.8 7.3 7.1 6.8 4.8 3.8 4.5 4.5 4.4 4.1 2.9 3.3 4.5 4.3 3.4 3.6 5.7 5.8 5.3 4.1 4.4 3.9 3.0 3.9 3.5 3.7 4.4 4.4 4.4 2.5 1.5 1.7 2.2 2.5 2.6 2.8 3.1 3.2
3.1 7.1 4.5 5.7 3.2 2.8 5.4 4.4 4.9 4.3 4.1 3.7 3.3 2.9 3.4 3.9 2.6 5.8 6.1 3.6 1.2 1.4 2.3 2.4 1.3 2.6 3.5 3.5 2.8 2.1 2.2 1.7 1.9 2.5 2.9 3.1 3.6 3.6
2.6 1.5 5.5 4.2 3.1 2.9 4.9 4.8 4.8 3.9 3.4 4.0 3.8 3.9 4.1 4.1 3.5 3.9 4.7 5.0 1.4 2.0 2.2 1.2 0.7 0.5 1.4 1.6 0.6 1.1 0.6 0.8 1.1 2.1 2.8 2.8 3.3 4.1
1.9 2.7 1.5 3.2 2.8 3.0 3.8 3.4 2.9 3.6 4.1 4.3 4.2 3.7 3.7 3.5 2.7 2.7 2.2 2.2 2.1 2.2 1.9 1.3 -0.0 1.0 0.6 1.3 1.9 0.5 1.2 0.5 -0.3 0.5 1.1 1.4 2.5 3.7
4.1 4.3 3.7 3.0 1.4 1.8 2.1 2.5 3.2 3.7 3.5 3.4 3.2 2.3 1.4 1.4 -0.3 -1.2 -1.8 -1.3 -1.6 -1.5 -0.2 0.3 -0.3 -0.6 0.6 1.5 1.9 1.3 1.8 1.0 0.4 0.5 0.8 0.9 0.5 1.6
4.8 4.5 4.2 3.4 2.3 1.9 2.1 1.8 2.5 3.0 2.7 2.3 1.2 0.1 -0.8 -0.8 -0.3 -0.8 -0.6 -0.7 -0.3 -1.1 -2.4 -1.4 -1.2 -0.9 0.5 0.9 1.0 1.3 1.2 2.4 2.1 2.1 1.1 0.6 0.9 1.4
6.3 4.8 3.6 3.7 3.7 2.6 1.8 2.0 2.0 2.1 1.8 1.3 1.1 0.6 0.1 -0.3 -0.5 -0.8 -0.7 -0.6 0.2 -0.1 -0.7 -1.9 -2.4 -1.4 -0.8 0.2 1.3 1.5 2.3 2.5 2.4 2.2 2.3 2.8 2.8 2.5
6.2 5.4 4.2 4.2 3.9 3.4 2.5 1.7 1.4 2.2 1.9 1.6 1.5 1.2 0.8 0.4 0.1 -0.5 -0.6 -0.0 0.5 0.1 -0.1 -0.9 -0.9 -0.1 0.3 -0.3 -0.0 2.4 2.7 3.1 2.6 2.2 2.6 3.3 4.2 4.4
5.8 5.7 5.3 5.1 4.1 3.2 2.7 2.1 1.5 1.0 0.6 0.8 1.1 1.0 0.8 0.7 0.7 0.2 0.0 0.3 0.6 0.4 0.1 -0.5 0.1 1.5 2.3 3.7 0.7 0.0 3.0 2.9 3.1 3.4 3.1 3.4 3.5 3.9
5.6 5.8 5.3 4.6 4.0 3.5 3.1 2.9 1.8 1.4 1.5 2.1 2.1 1.6 1.4 1.4 1.1 1.1 0.9 1.1 0.9 0.3 -0.0 0.2 1.0 2.2 3.9 5.4 4.2 1.4 0.2 2.2 2.4 2.8 3.3 3.1 3.3 2.7
5.3 5.2 5.0 4.8 4.3 3.9 3.5 3.4 2.7 2.5 1.9 1.8 2.3 2.1 2.0 2.2 1.9 1.8 1.7 2.3 2.1 1.7 1.9 2.1 2.4 2.1 2.2 3.0 3.9 2.4 1.2 0.9 1.5 2.4 3.6 2.9 3.1 3.0
4.7 4.7 4.5 4.3 4.5 4.8 4.1 3.4 3.7 3.0 2.1 2.0 2.2 2.5 2.3 2.3 2.8 3.0 3.0 3.2 3.3 3.5 3.5 1.7 1.8 2.9 3.6 4.5 3.9 2.6 2.7 2.5 2.6 2.5 2.7 3.1 3.7 4.3
4.7 4.8 4.6 4.6 4.5 4.7 4.6 4.7 4.4 3.9 3.3 2.7 2.4 2.6 2.4 2.6 3.0 3.5 3.8 4.1 3.7 3.0 2.8 2.6 2.6 2.9 3.1 3.4 3.5 3.3 2.8 3.2 3.4 3.4 4.0 3.6 3.5 3.7
Wind_Speed
15 17 14 12 12 11 11 8 8 7 8 7 4 11 14 14 16 12 11 14 17 21 23 24 22 22 21 20 24 23 23 23 23 23 23 22 21 21
13 16 16 12 13 11 11 10 11 9 6 7 6 5 12 11 16 17 17 16 20 22 26 29 28 25 23 20 19 23 26 26 24 24 27 25 25 23
14 16 18 16 12 12 11 12 11 10 10 5 5 3 7 10 10 16 17 16 17 24 25 26 30 29 28 27 25 23 22 24 26 26 27 28 26 25
18 17 17 14 16 14 12 14 12 12 9 7 5 4 5 8 8 10 10 15 18 20 27 26 27 29 28 28 28 27 25 27 27 25 27 30 31 29
20 20 18 19 17 13 14 12 13 10 10 6 4 2 2 3 3 5 8 10 15 19 18 21 22 22 23 24 25 29 30 31 27 28 29 30 33 33
19 20 19 19 19 18 15 15 12 10 10 9 7 3 3 3 2 3 3 5 8 10 14 15 15 20 23 23 24 26 27 28 27 26 27 30 33 33
19 19 22 22 23 21 14 15 14 12 10 10 5 4 3 3 6 4 5 4 8 6 5 7 10 13 15 20 22 27 30 28 27 26 27 28 30 33
17 19 20 18 21 22 21 20 19 17 14 10 8 10 11 9 7 6 7 7 4 8 6 7 8 6 9 12 17 23 24 26 26 27 27 28 28 29
18 19 18 13 20 19 22 22 20 20 19 15 14 13 13 11 11 11 11 8 7 4 6 4 5 6 9 11 17 19 22 23 23 23 24 25 26 26
21 21 20 17 21 21 19 18 18 16 15 12 13 13 12 12 11 11 11 9 3 3 4 4 5 5 6 10 13 16 19 20 19 20 20 22 23 25
17 21 22 21 26 26 19 17 14 13 12 14 10 11 8 10 7 7 7 5 4 4 5 2 3 3 4 6 9 8 12 14 15 16 17 18 20 21
5 20 26 24 27 28 20 17 15 14 13 9 6 7 8 9 13 9 7 4 2 1 4 5 3 3 2 1 3 3 4 5 9 13 15 15 15 13
5 4 15 27 29 30 25 17 16 14 13 10 8 7 6 7 6 6 6 6 3 3 5 4 2 2 1 2 1 1 1 3 3 7 10 12 13 15
7 5 6 23 30 27 21 21 21 16 10 9 7 6 6 6 4 4 4 4 4 3 9 6 3 4 3 2 2 1 1 2 2 2 6 9 12 14
6 10 14 12 20 18 22 25 20 9 9 8 6 5 3 4 5 5 5 8 7 4 2 4 2 3 2 2 2 2 2 0 2 2 3 3 3 3
7 6 11 14 13 12 10 10 7 6 6 6 3 3 3 3 2 2 2 3 2 2 5 5 5 3 2 2 2 1 2 2 2 2 2 2 3 5
7 6 7 4 4 5 6 6 5 5 4 4 3 4 3 3 2 2 2 2 2 3 3 2 6 7 3 2 2 1 1 1 1 2 2 2 1 2
4 5 4 3 4 4 4 5 4 5 3 3 3 4 5 5 4 3 2 2 3 3 3 3 4 2 1 4 6 1 2 2 1 1 2 2 3 2
4 4 3 4 4 4 3 3 3 3 3 4 3 3 4 3 6 5 4 3 2 2 2 3 4 2 3 3 3 9 1 1 1 1 1 2 3 4
4 4 4 4 3 3 3 3 5 4 4 4 4 3 4 4 3 4 5 4 4 2 3 2 2 3 2 1 3 2 7 1 1 1 2 2 4 11
3 3 3 3 3 2 3 3 4 2 4 4 4 4 4 3 4 3 4 7 6 3 4 4 2 8 5 4 3 2 1 3 2 1 2 3 3 3
5 5 4 4 3 3 3 3 3 3 3 4 4 3 3 3 3 3 4 5 5 5 6 6 4 4 2 1 3 3 1 1 3 5 8 8 2 3
6 5 5 4 4 2 2 2 2 3 3 4 4 3 4 4 3 4 5 5 6 7 8 7 5 4 3 3 3 2 1 1 3 4 4 5 10 15
Wind_Direction
211 208 215 206 202 198 205 195 191 187 205 196 172 206 204 179 187 192 209 219 234 241 241 242 242 248 243 233 229 229 229 229 229 223 224 224 229 234
212 211 211 206 204 202 208 204 210 208 203 193 205 177 198 196 192 188 207 223 238 237 232 238 242 246 249 243 236 233 233 233 237 229 227 229 232 235
213 213 212 206 199 197 202 208 215 217 220 179 188 154 185 208 203 210 206 206 231 243 239 237 238 240 245 249 249 245 243 243 241 239 233 233 236 238
211 210 216 208 203 193 196 205 207 205 204 189 175 180 176 200 210 209 205 215 222 230 232 230 234 238 240 245 251 252 251 250 246 244 239 236 234 233
221 211 209 209 201 195 194 197 207 204 208 195 168 162 116 145 163 207 210 220 228 233 227 230 236 238 240 242 245 249 249 251 251 246 244 239 235 236
228 216 206 205 204 198 198 196 196 194 193 198 177 152 179 140 162 167 203 213 222 215 228 234 233 237 240 243 245 248 250 250 251 249 247 243 238 236
236 224 214 203 199 193 194 190 188 194 193 191 181 161 156 151 192 173 200 195 224 216 217 222 226 236 243 244 246 247 246 246 247 249 250 248 242 239
249 226 217 200 197 185 190 190 187 193 192 189 180 194 193 192 178 186 188 200 221 186 196 236 199 222 234 234 242 240 242 243 245 249 249 248 246 240
242 220 215 195 197 192 184 179 188 190 190 185 186 193 188 190 179 187 191 196 208 159 186 217 185 228 236 240 248 251 250 251 251 252 252 251 246 244
236 219 210 193 191 189 185 185 190 191 189 190 192 190 194 184 192 190 202 208 208 142 210 226 217 243 248 245 252 253 252 252 254 257 258 256 250 246
237 223 205 193 184 180 179 181 182 186 181 175 181 181 157 133 168 158 172 161 195 200 195 220 212 246 251 261 257 263 274 273 269 268 270 267 263 257
318 217 198 189 173 173 180 175 174 175 168 168 157 137 162 171 166 190 177 174 129 75 207 193 178 161 280 241 259 261 282 274 282 278 276 279 275 263
359 325 192 185 173 175 178 175 179 157 158 163 159 156 160 169 178 185 173 175 148 193 174 155 152 152 204 276 280 248 326 305 308 301 298 295 287 265
9 357 4 176 170 165 165 153 147 147 153 157 159 163 169 174 169 155 146 132 115 181 170 174 173 170 170 173 243 311 250 312 336 303 309 306 292 293
12 29 27 34 114 118 129 138 135 144 144 154 164 164 160 144 110 94 78 94 86 74 80 183 126 145 151 191 183 219 327 351 340 309 317 336 340 330
26 45 39 39 52 92 108 95 103 135 142 143 129 99 96 106 113 120 121 133 118 124 60 83 147 122 154 188 166 194 216 275 353 351 313 326 359 31
17 39 51 28 44 69 74 88 97 99 113 124 130 137 127 122 118 120 97 118 149 158 155 94 69 83 67 101 200 211 219 258 337 329 314 321 322 310
17 35 34 4 60 66 90 86 81 113 109 112 118 139 154 157 150 140 124 143 159 154 152 155 145 139 138 82 33 193 222 236 242 24 344 303 284 268
26 44 24 29 44 48 57 72 99 93 96 98 103 120 126 147 161 163 144 134 143 140 142 150 167 168 158 199 116 37 246 180 206 232 309 285 295 299
29 48 46 35 43 58 60 75 86 98 101 105 103 117 136 147 156 164 166 159 139 131 133 141 177 186 184 177 147 100 33 100 64 348 310 298 266 279
48 64 67 65 55 60 71 87 90 95 125 126 127 136 150 154 147 146 154 162 147 142 158 155 128 100 102 125 124 137 102 50 37 313 323 302 305 302
35 42 39 44 43 42 60 77 95 104 119 123 131 149 138 129 137 163 161 155 152 147 117 107 112 116 98 58 114 114 122 2 290 271 258 252 289 288
28 31 36 30 34 27 56 105 121 114 128 126 134 127 131 134 140 151 153 143 140 135 136 129 115 81 83 92 96 105 74 358 338 321 293 260 266 272